[[{"header":{"parameterUnit":"m.s-1","parameterCategory":1,"la1":30.2991,"la2":30.254,"lo1":-89.0895,"lo2":-89.0444,"dy":0.0017,"dx":0.0017,"nx":28,"ny":28,"refTime":"2025-11-15T03:00:00:Z","depth":0,"parameterNumber":2,"parameterNumberName":"U-component_of_WINDS"},"data":[0,0,0,0,0,0,0,0,0,0,0,0,0,0,0,0,0,0,0,0,0,0,0,0,0,0,0,0,0,0,0,0,0,0,0,0,0,0,0,0,0,0,0,0,0,0,0,0,0,0,0,0,0,0,0,0,0,0,0.64,0.64,0,0.6408,0.6408,0.6408,0.637,0.6368,0.6367,0.6366,0.6377,0.6378,0.6379,0,0,0,0,0,0,0,0,0,0,0,0,0,0.6356,0.6357,0.64,0.64,0.64,0.6408,0.6408,0.6408,0.637,0.6368,0.6367,0.6366,0.6376,0.6378,0.6379,0,0,0,0,0,0,0,0,0,0,0,0,0,0.637,0.6357,0.64,0.6382,0.6381,0.6408,0.6408,0.6408,0.637,0.6368,0.6367,0.6365,0.6376,0.6378,0.638,0.6425,0,0,0.6385,0.6386,0,0,0,0,0,0,0,0,0.637,0.6372,0.6385,0.6383,0.6382,0.6386,0.6396,0.6414,0.6371,0.6374,0.6366,0.6364,0.6381,0.6383,0.6388,0.6425,0.6426,0.6386,0.6387,0.6388,0.6388,0,0,0,0,0,0,0,0.6369,0.6371,0.6403,0.6385,0.6383,0.6375,0.6375,0.6399,0.6387,0.6374,0.6371,0.6372,0.638,0.6386,0.6388,0.6426,0.6386,0.6387,0.6389,0.6389,0.6502,0.6504,0,0,0,0,0,0,0.637,0.6371,0.6403,0.6403,0.6371,0.6377,0.6377,0.6386,0.6387,0.6385,0.6374,0.637,0.6383,0.6385,0.6388,0.6441,0.6388,0.639,0.6391,0.65,0.6503,0.6505,0,0,0,0,0,0,0.6369,0.6373,0.6403,0.6386,0.639,0.6379,0.639,0.6387,0.6393,0.6387,0.6384,0.6382,0.6382,0.6385,0.6416,0.6441,0.639,0.6392,0.6498,0.6501,0.6504,0.6548,0,0,0,0,0,0,0.6368,0.6373,0.6389,0.6387,0.6391,0.643,0.6392,0.6389,0.6396,0.6392,0.6393,0.6392,0.6381,0.6413,0.6418,0.6443,0.6394,0.6496,0.65,0.6503,0.6545,0.6552,0.6559,0,0,0,0,0,0.6366,0.6402,0.639,0.6394,0.6411,0.6431,0.6433,0.6419,0.6398,0.6415,0.6411,0.6392,0.6438,0.6417,0.6422,0.6448,0.6494,0.6499,0.6503,0.6541,0.6551,0.6559,0,0,0,0,0,0,0.6407,0.6401,0.6388,0.6424,0.6428,0.6425,0.6445,0.643,0.644,0.6436,0.6419,0.642,0.6454,0.6454,0.6431,0.6492,0.6463,0.6468,0.6491,0.6499,0.6506,0.6505,0.6395,0,0,0,0,0,0.6421,0.6437,0.6431,0.6463,0.6466,0.6456,0.6464,0.6453,0.6457,0.6459,0.6457,0.6463,0.6478,0.6489,0.6503,0.6545,0.6545,0.6565,0.6572,0.6578,0.6583,0.6606,0.6615,0.6518,0.6518,0.6518,0,0,0.6448,0.6447,0.6458,0.6472,0.6474,0.6492,0.6457,0.6478,0.6492,0.6462,0.6491,0.649,0.6495,0.6532,0.6548,0.6533,0.661,0.6584,0.6588,0.659,0.6611,0.662,0.6628,0.6521,0.652,0.652,0,0,0.6508,0.6508,0.6535,0.6538,0.6542,0.6534,0.6541,0.654,0.6538,0.6567,0.6545,0.6562,0.6589,0.6594,0.66,0.6662,0.6645,0.6668,0.6705,0.6727,0.6735,0.6741,0.6764,0.6772,0.6672,0.6673,0.6673,0,0.6541,0.6567,0.6551,0.6573,0.658,0.6554,0.6582,0.6586,0.6594,0.66,0.6583,0.6617,0.6619,0.6656,0.6672,0.6678,0.6685,0.6667,0.6735,0.6741,0.6747,0.6768,0.6777,0.6675,0.6675,0.6675,0.6674,0,0.6609,0.6627,0.6649,0.6657,0.6666,0.6691,0.668,0.6692,0.668,0.6675,0.6705,0.6707,0.6721,0.6729,0.6718,0.6765,0.6756,0.6737,0.6707,0.6759,0.6779,0.6787,0.6679,0.6678,0.6677,0.6677,0,0,0.6693,0.6693,0.6701,0.6704,0.6707,0.6721,0.6746,0.6759,0.6769,0.6777,0.6797,0.6821,0.6804,0.6811,0.6801,0.682,0.687,0.6799,0.6799,0.6812,0.6923,0.6936,0.6946,0.6859,0.6861,0.6862,0.6922,0,0.6751,0.6791,0.6778,0.682,0.6837,0.6813,0.6835,0.6839,0.6836,0.6851,0.6847,0.6864,0.6841,0.6845,0.6863,0.686,0.6892,0.6856,0.6879,0.688,0.6877,0.6956,0.697,0.7027,0.693,0.6931,0.6932,0,0.6823,0.6833,0.6876,0.6876,0.6883,0.6902,0.6913,0.6928,0.6933,0.6929,0.6938,0.6923,0.6949,0.6919,0.6954,0.6929,0.6938,0.6939,0.6941,0.6942,0.6908,0.6959,0.7045,0.7053,0.6944,0.6943,0.6942,0,0.688,0.6904,0.6933,0.6937,0.6938,0.6952,0.6953,0.6957,0.6966,0.6977,0.6982,0.6996,0.7004,0.7015,0.7006,0.6985,0.7042,0.7012,0.704,0.704,0.7052,0.7052,0.714,0.7059,0.7059,0.7059,0.7059,0,0.6946,0.6973,0.6958,0.6976,0.7006,0.6992,0.7022,0.7021,0.7025,0.7043,0.7024,0.7041,0.7028,0.7044,0.7037,0.7067,0.7071,0.7069,0.7067,0.707,0.7071,0.7075,0.7071,0.7061,0.7061,0.706,0.706,0,0.7014,0.7005,0.7035,0.7034,0.7034,0.7056,0.7056,0.7073,0.7068,0.7091,0.7096,0.7089,0.7108,0.71,0.712,0.7115,0.7154,0.7146,0.7151,0.7149,0.7178,0.7175,0.7272,0.7284,0.7196,0.7197,0.7198,0,0.7055,0.7076,0.7077,0.7087,0.709,0.7106,0.7115,0.7103,0.7113,0.7121,0.7138,0.7155,0.7167,0.7198,0.7196,0.7211,0.7204,0.7237,0.7206,0.7209,0.7204,0.7203,0.7205,0.7243,0.7244,0.7245,0.7246,0,0.7131,0.7125,0.7139,0.7151,0.7162,0.7172,0.7179,0.7189,0.7177,0.719,0.7208,0.7218,0.7239,0.7256,0.727,0.7272,0.7257,0.7256,0.7263,0.7266,0.7268,0.7267,0.7168,0.7253,0.7252,0.7252,0.7251,0.7251,0.7186,0.7203,0.7207,0.7223,0.7227,0.7235,0.7251,0.7249,0.7264,0.7279,0.7271,0.7293,0.7299,0.7315,0.732,0.7338,0.7325,0.7335,0.7338,0.7341,0.7344,0.7266,0.734,0.734,0.734,0.734,0.734,0,0.726,0.7261,0.7276,0.7287,0.73,0.7285,0.7293,0.7305,0.7324,0.7331,0.7344,0.7365,0.7382,0.7382,0.7398,0.7412,0.7406,0.7416,0.7415,0.7416,0.7355,0.7347,0.7421,0.7421,0.7421,0.7421,0.7421,0.7421,0.73,0.7328,0.7324,0.7354,0.7356,0.7376,0.7382,0.739,0.7395,0.742,0.7434,0.7433,0.7437,0.7453,0.7469,0.7468,0.7475,0.7488,0.7485,0.7428,0.742,0.7412,0.7404,0.749,0.749,0.7544,0.7545,0.7545]},{"header":{"parameterUnit":"m.s-1","parameterCategory":1,"la1":30.2991,"la2":30.254,"lo1":-89.0895,"lo2":-89.0444,"dy":0.0017,"dx":0.0017,"nx":28,"ny":28,"refTime":"2025-11-15T03:00:00:Z","depth":0,"parameterNumber":3,"parameterNumberName":"V-component_of_WINDS"},"data":[0,0,0,0,0,0,0,0,0,0,0,0,0,0,0,0,0,0,0,0,0,0,0,0,0,0,0,0,0,0,0,0,0,0,0,0,0,0,0,0,0,0,0,0,0,0,0,0,0,0,0,0,0,0,0,0,0,0,0.7979,0.7978,0,0.7918,0.7917,0.7916,0.7855,0.7854,0.7853,0.7852,0.7789,0.7788,0.7787,0,0,0,0,0,0,0,0,0,0,0,0,0,0.8043,0.8042,0.7979,0.7978,0.7977,0.7918,0.7917,0.7916,0.7855,0.7854,0.7853,0.7852,0.7789,0.7788,0.7787,0,0,0,0,0,0,0,0,0,0,0,0,0,0.8002,0.8042,0.7979,0.794,0.7936,0.7918,0.7917,0.7916,0.7855,0.7854,0.7853,0.7852,0.7789,0.7788,0.7787,0.7802,0,0,0.7782,0.7782,0,0,0,0,0,0,0,0,0.8004,0.8,0.7946,0.7942,0.7938,0.7893,0.7916,0.7878,0.7856,0.7886,0.7852,0.7851,0.7824,0.782,0.7811,0.7799,0.7797,0.7782,0.7781,0.7781,0.778,0,0,0,0,0,0,0,0.8007,0.8002,0.7955,0.7946,0.794,0.7925,0.7918,0.7909,0.7863,0.7883,0.7878,0.7872,0.7822,0.7812,0.7809,0.7796,0.7782,0.7781,0.778,0.7779,0.7796,0.7797,0,0,0,0,0,0,0.8016,0.8005,0.7957,0.7953,0.7969,0.7925,0.7917,0.7908,0.7862,0.7854,0.7873,0.7869,0.7815,0.7811,0.7807,0.7823,0.7781,0.7779,0.7779,0.7795,0.7796,0.7798,0,0,0,0,0,0,0.8018,0.8013,0.7959,0.7978,0.797,0.7925,0.7916,0.7908,0.7899,0.7855,0.7846,0.7872,0.7814,0.7809,0.7804,0.782,0.7779,0.7777,0.7793,0.7795,0.7797,0.7856,0,0,0,0,0,0,0.802,0.8013,0.8019,0.7978,0.7969,0.7958,0.7917,0.7907,0.7896,0.7891,0.7852,0.7844,0.7813,0.7807,0.7803,0.7817,0.7776,0.7792,0.7794,0.7796,0.7853,0.786,0.7866,0,0,0,0,0,0.8022,0.8037,0.8019,0.8014,0.7975,0.7959,0.7954,0.7917,0.7898,0.7903,0.7876,0.7846,0.7819,0.7807,0.7802,0.7816,0.779,0.7793,0.7796,0.785,0.7858,0.7866,0,0,0,0,0,0,0.808,0.8031,0.8011,0.8013,0.7991,0.7949,0.7954,0.7928,0.791,0.7906,0.7861,0.7853,0.7855,0.7835,0.7822,0.783,0.7801,0.7803,0.7843,0.7851,0.7858,0.7862,0.7775,0,0,0,0,0,0.8093,0.8084,0.8042,0.8048,0.8038,0.7998,0.799,0.7964,0.7939,0.7929,0.7901,0.7878,0.7865,0.7857,0.7842,0.785,0.7841,0.7857,0.7864,0.787,0.7872,0.7877,0.7884,0.7807,0.7807,0.7807,0,0,0.8119,0.8092,0.8089,0.8059,0.8039,0.8031,0.7991,0.7984,0.7978,0.7928,0.7923,0.7902,0.7873,0.7876,0.7875,0.7859,0.7892,0.7873,0.7878,0.7877,0.788,0.7888,0.7894,0.7809,0.7809,0.7808,0,0,0.8164,0.8142,0.8145,0.8126,0.8097,0.807,0.8072,0.8034,0.8018,0.8013,0.7976,0.7968,0.7946,0.7927,0.7915,0.7955,0.7928,0.7952,0.7987,0.7992,0.7998,0.8003,0.8019,0.8025,0.7954,0.7954,0.7954,0,0.82,0.8188,0.815,0.8146,0.8135,0.8091,0.8094,0.8077,0.8044,0.8038,0.802,0.7993,0.797,0.7968,0.7979,0.797,0.797,0.7956,0.8,0.8005,0.8009,0.8023,0.8029,0.7958,0.7957,0.7957,0.7957,0,0.8235,0.8227,0.8233,0.8204,0.8193,0.8192,0.8155,0.8149,0.8125,0.8101,0.8096,0.8068,0.8048,0.8045,0.8021,0.8041,0.8032,0.8008,0.7978,0.802,0.8033,0.8038,0.7962,0.7961,0.796,0.7959,0,0,0.8312,0.8264,0.8267,0.8254,0.8219,0.8212,0.821,0.8191,0.8187,0.8166,0.8165,0.8148,0.8126,0.8112,0.8086,0.809,0.8126,0.8066,0.8064,0.8079,0.8148,0.8166,0.8173,0.8107,0.8108,0.8109,0.815,0,0.8351,0.8346,0.8313,0.8318,0.8311,0.827,0.8269,0.8248,0.8226,0.8217,0.8192,0.8181,0.8153,0.8145,0.8147,0.8121,0.8139,0.8118,0.8106,0.8106,0.8115,0.8179,0.8199,0.8239,0.8155,0.8156,0.8156,0,0.8396,0.8379,0.8384,0.8351,0.8347,0.8346,0.8327,0.8319,0.8294,0.8278,0.8264,0.8235,0.8232,0.8204,0.82,0.8186,0.818,0.8166,0.8167,0.8165,0.8134,0.818,0.8251,0.8257,0.8164,0.8163,0.8162,0,0.8453,0.8432,0.8432,0.8422,0.8383,0.8385,0.8368,0.8343,0.8334,0.8318,0.8312,0.8295,0.8286,0.8274,0.8241,0.8223,0.8241,0.821,0.8228,0.8229,0.8234,0.8234,0.8305,0.8229,0.8229,0.8229,0.8229,0,0.85,0.8505,0.8458,0.8458,0.8462,0.8425,0.843,0.841,0.8388,0.8385,0.8348,0.8345,0.8302,0.8295,0.827,0.8271,0.8267,0.8254,0.8247,0.8258,0.8259,0.8253,0.8249,0.823,0.823,0.823,0.823,0,0.8565,0.8533,0.8531,0.8496,0.8487,0.8492,0.8461,0.846,0.8437,0.8433,0.8429,0.8393,0.8382,0.8349,0.833,0.8313,0.8322,0.8309,0.8331,0.8326,0.8347,0.8346,0.8417,0.8425,0.8344,0.8344,0.8345,0,0.8597,0.86,0.8565,0.856,0.8546,0.8538,0.853,0.8494,0.8486,0.8461,0.8463,0.845,0.8438,0.8423,0.8395,0.8381,0.8367,0.8393,0.8365,0.8375,0.8368,0.8369,0.837,0.8399,0.84,0.8401,0.8402,0,0.8658,0.8643,0.8632,0.8617,0.8608,0.8593,0.8577,0.8575,0.8535,0.8529,0.8518,0.8509,0.8491,0.8478,0.846,0.8444,0.8417,0.8411,0.8415,0.8425,0.8438,0.8433,0.8348,0.841,0.8409,0.8408,0.8408,0.8408,0.8707,0.8708,0.8685,0.8675,0.8659,0.8646,0.8644,0.8621,0.8611,0.8594,0.8573,0.8566,0.8543,0.8516,0.8502,0.8496,0.8481,0.8486,0.8488,0.849,0.8495,0.844,0.8493,0.8492,0.8492,0.8492,0.8492,0,0.8767,0.875,0.8741,0.8721,0.8713,0.8689,0.8671,0.8666,0.866,0.8641,0.8631,0.862,0.8608,0.858,0.8566,0.8567,0.8555,0.8565,0.8564,0.8561,0.8508,0.8507,0.8575,0.8575,0.8575,0.8575,0.8575,0.8575,0.8797,0.8798,0.8781,0.8775,0.8758,0.8751,0.8743,0.873,0.8716,0.8705,0.8696,0.8678,0.8656,0.8641,0.863,0.8622,0.8619,0.8634,0.8622,0.8573,0.8565,0.8557,0.8556,0.8633,0.8633,0.8675,0.8676,0.8676]}]]